| time (UTC) | temp F | wind direction | speed MPH | gust MPH | rain 1hr in | rain 24hr in | rain mn in | humidity % | barometer mb |
| 20260504001040 | 58 | 212 | 0.0 | 0.0 | 0.00 | 0.00 | 0.00 | 34 | 1002.6 |
| 20260503235901 | 59 | 225 | 0.0 | 4.0 | 0.00 | 0.00 | 0.00 | 33 | 1002.5 |
| 20260503235353 | 59 | 198 | 0.0 | 7.0 | 0.00 | 0.00 | 0.00 | 32 | 1002.5 |
| 20260503234852 | 59 | 198 | 1.0 | 7.0 | 0.00 | 0.00 | 0.00 | 32 | 1002.4 |
| 20260503234334 | 59 | 217 | 1.0 | 6.0 | 0.00 | 0.00 | 0.00 | 32 | 1002.3 |
| 20260503233845 | 60 | 188 | 1.0 | 6.0 | 0.00 | 0.00 | 0.00 | 33 | 1002.2 |
| 20260503233338 | 60 | 215 | 0.0 | 6.0 | 0.00 | 0.00 | 0.00 | 32 | 1002.2 |
| 20260503232841 | 60 | 244 | 0.0 | 3.0 | 0.00 | 0.00 | 0.00 | 32 | 1002.1 |
| 20260503230434 | 60 | 217 | 1.0 | 5.0 | 0.00 | 0.00 | 0.00 | 30 | 1002.0 |
| 20260503225943 | 60 | 248 | 1.0 | 5.0 | 0.00 | 0.00 | 0.00 | 31 | 1002.0 |
| 20260503225444 | 60 | 173 | 1.0 | 5.0 | 0.00 | 0.00 | 0.00 | 29 | 1001.9 |
| 20260503224942 | 61 | 315 | 1.0 | 7.0 | 0.00 | 0.00 | 0.00 | 31 | 1002.0 |
| 20260503224451 | 61 | 215 | 1.0 | 7.0 | 0.00 | 0.00 | 0.00 | 30 | 1002.0 |
| 20260503223311 | 61 | 209 | 2.0 | 7.0 | 0.00 | 0.00 | 0.00 | 30 | 1001.9 |
| 20260503222805 | 61 | 198 | 2.0 | 6.0 | 0.00 | 0.00 | 0.00 | 29 | 1001.9 |
| 20260503222249 | 62 | 177 | 1.0 | 1.0 | 0.00 | 0.00 | 0.00 | 28 | 1001.8 |
| 20260503221748 | 62 | 208 | 2.0 | 13.0 | 0.00 | 0.00 | 0.00 | 28 | 1001.7 |
| 20260503221257 | 62 | 211 | 2.0 | 13.0 | 0.00 | 0.00 | 0.00 | 27 | 1001.8 |
| 20260503220759 | 62 | 345 | 2.0 | 5.0 | 0.00 | 0.00 | 0.00 | 27 | 1001.7 |
| 20260503220306 | 62 | 217 | 3.0 | 10.0 | 0.00 | 0.00 | 0.00 | 26 | 1001.8 |
| 20260503215748 | 62 | 224 | 2.0 | 10.0 | 0.00 | 0.00 | 0.00 | 28 | 1001.7 |
| 20260503215243 | 63 | 20 | 2.0 | 10.0 | 0.00 | 0.00 | 0.00 | 28 | 1001.8 |
| 20260503214742 | 63 | 201 | 1.0 | 9.0 | 0.00 | 0.00 | 0.00 | 28 | 1001.8 |
| 20260503214224 | 63 | 182 | 0.0 | 7.0 | 0.00 | 0.00 | 0.00 | 28 | 1001.8 |
| 20260503213717 | 63 | 200 | 1.0 | 11.0 | 0.00 | 0.00 | 0.00 | 27 | 1001.7 |
| 20260503212537 | 62 | 5 | 1.0 | 12.0 | 0.00 | 0.00 | 0.00 | 29 | 1001.8 |
| 20260503212046 | 61 | 344 | 3.0 | 12.0 | 0.00 | 0.00 | 0.00 | 28 | 1001.8 |
| 20260503211529 | 61 | 205 | 4.0 | 13.0 | 0.00 | 0.00 | 0.00 | 28 | 1001.8 |
| 20260503211024 | 62 | 194 | 3.0 | 13.0 | 0.00 | 0.00 | 0.00 | 26 | 1001.8 |
| 20260503210524 | 62 | 350 | 3.0 | 13.0 | 0.00 | 0.00 | 0.00 | 27 | 1001.8 |
| 20260503210024 | 62 | 234 | 2.0 | 13.0 | 0.00 | 0.00 | 0.00 | 29 | 1001.7 |
| 20260503205504 | 62 | 329 | 3.0 | 12.0 | 0.00 | 0.00 | 0.00 | 27 | 1001.8 |
| 20260503204338 | 63 | 338 | 2.0 | 10.0 | 0.00 | 0.00 | 0.00 | 27 | 1001.7 |
| 20260503203224 | 62 | 342 | 2.0 | 12.0 | 0.00 | 0.00 | 0.00 | 28 | 1001.8 |
| 20260503202721 | 62 | 124 | 3.0 | 12.0 | 0.00 | 0.00 | 0.00 | 30 | 1001.8 |
| 20260503202222 | 62 | 318 | 3.0 | 14.0 | 0.00 | 0.00 | 0.00 | 26 | 1002.1 |
| 20260503201721 | 61 | 238 | 3.0 | 14.0 | 0.00 | 0.00 | 0.00 | 29 | 1002.1 |
| 20260503201206 | 61 | 346 | 3.0 | 15.0 | 0.00 | 0.00 | 0.00 | 29 | 1002.0 |
| 20260503200646 | 61 | 193 | 2.0 | 15.0 | 0.00 | 0.00 | 0.00 | 29 | 1002.1 |
| 20260503195544 | 61 | 291 | 3.0 | 15.0 | 0.00 | 0.00 | 0.00 | 28 | 1002.2 |
| 20260503195048 | 61 | 329 | 3.0 | 12.0 | 0.00 | 0.00 | 0.00 | 32 | 1002.3 |
| 20260503194536 | 60 | 9 | 3.0 | 12.0 | 0.00 | 0.00 | 0.00 | 29 | 1002.4 |
| 20260503194023 | 60 | 182 | 2.0 | 12.0 | 0.00 | 0.00 | 0.00 | 30 | 1002.2 |
| 20260503193514 | 60 | 252 | 1.0 | 11.0 | 0.00 | 0.00 | 0.00 | 29 | 1002.2 |
| 20260503193007 | 59 | 340 | 2.0 | 11.0 | 0.00 | 0.00 | 0.00 | 29 | 1002.3 |
| 20260503192448 | 59 | 350 | 3.0 | 15.0 | 0.00 | 0.00 | 0.00 | 30 | 1002.5 |
| 20260503191940 | 59 | 203 | 3.0 | 15.0 | 0.00 | 0.00 | 0.00 | 31 | 1002.6 |
| 20260503191444 | 59 | 17 | 2.0 | 15.0 | 0.00 | 0.00 | 0.00 | 31 | 1002.5 |
| 20260503190326 | 59 | 187 | 3.0 | 14.0 | 0.00 | 0.00 | 0.00 | 32 | 1002.5 |
| 20260503185828 | 60 | 338 | 3.0 | 14.0 | 0.00 | 0.00 | 0.00 | 30 | 1002.7 |
| 20260503185336 | 60 | 5 | 3.0 | 19.0 | 0.00 | 0.00 | 0.00 | 30 | 1002.7 |
| 20260503184817 | 60 | 350 | 3.0 | 19.0 | 0.00 | 0.00 | 0.00 | 31 | 1002.7 |
| 20260503183655 | 60 | 180 | 2.0 | 19.0 | 0.00 | 0.00 | 0.00 | 31 | 1002.7 |
| 20260503183156 | 59 | 165 | 1.0 | 9.0 | 0.00 | 0.00 | 0.00 | 35 | 1002.9 |
| 20260503182659 | 59 | 331 | 2.0 | 9.0 | 0.00 | 0.00 | 0.00 | 32 | 1002.9 |
| 20260503182208 | 58 | 345 | 2.0 | 14.0 | 0.00 | 0.00 | 0.00 | 33 | 1002.8 |
| 20260503181703 | 57 | 208 | 3.0 | 14.0 | 0.00 | 0.00 | 0.00 | 35 | 1002.9 |
| 20260503181154 | 57 | 199 | 4.0 | 14.0 | 0.00 | 0.00 | 0.00 | 34 | 1002.8 |
| 20260503180654 | 59 | 347 | 3.0 | 14.0 | 0.00 | 0.00 | 0.00 | 31 | 1002.9 |
| 20260503175536 | 58 | 148 | 3.0 | 11.0 | 0.00 | 0.00 | 0.00 | 34 | 1003.0 |
| 20260503175018 | 57 | 261 | 3.0 | 11.0 | 0.00 | 0.00 | 0.00 | 37 | 1003.0 |
| 20260503174501 | 57 | 9 | 3.0 | 11.0 | 0.00 | 0.00 | 0.00 | 37 | 1003.1 |
| 20260503173944 | 57 | 249 | 3.0 | 11.0 | 0.00 | 0.00 | 0.00 | 34 | 1003.1 |
| 20260503173451 | 57 | 346 | 2.0 | 10.0 | 0.00 | 0.00 | 0.00 | 34 | 1003.1 |
| 20260503172942 | 56 | 286 | 2.0 | 10.0 | 0.00 | 0.00 | 0.00 | 35 | 1003.3 |
| 20260503172424 | 55 | 5 | 3.0 | 15.0 | 0.00 | 0.00 | 0.00 | 36 | 1003.5 |
| 20260503171933 | 56 | 5 | 3.0 | 15.0 | 0.00 | 0.00 | 0.00 | 36 | 1003.4 |
| 20260503171426 | 56 | 185 | 3.0 | 15.0 | 0.00 | 0.00 | 0.00 | 38 | 1003.5 |
| 20260503170923 | 55 | 192 | 3.0 | 15.0 | 0.00 | 0.00 | 0.00 | 39 | 1003.5 |
| 20260503170429 | 56 | 259 | 3.0 | 10.0 | 0.00 | 0.00 | 0.00 | 37 | 1003.5 |
| 20260503160118 | 53 | 20 | 3.0 | 15.0 | 0.00 | 0.00 | 0.00 | 38 | 1003.7 |
| 20260503140204 | 53 | 19 | 2.0 | 9.0 | 0.00 | 0.00 | 0.00 | 42 | 1004.0 |
| 20260503130325 | 50 | 57 | 2.0 | 9.0 | 0.00 | 0.00 | 0.00 | 51 | 1003.9 |
| 20260503110738 | 45 | 189 | 0.0 | 4.0 | 0.00 | 0.00 | 0.00 | 58 | 1003.6 |
| 20260503110237 | 45 | 205 | 0.0 | 2.0 | 0.00 | 0.00 | 0.00 | 59 | 1003.5 |
| 20260503090440 | 47 | 0 | 0.0 | 4.0 | 0.00 | 0.00 | 0.00 | 53 | 1002.4 |
| 20260503080714 | 47 | 332 | 0.0 | 4.0 | 0.00 | 0.00 | 0.00 | 52 | 1002.1 |
| 20260503080205 | 47 | 17 | 0.0 | 2.0 | 0.00 | 0.00 | 0.00 | 52 | 1002.0 |
| 20260503072849 | 48 | 22 | 0.0 | 0.0 | 0.00 | 0.00 | 0.00 | 51 | 1002.0 |
| 20260503072352 | 48 | 22 | 0.0 | 0.0 | 0.00 | 0.00 | 0.00 | 51 | 1002.0 |
| 20260503071846 | 48 | 22 | 0.0 | 0.0 | 0.00 | 0.00 | 0.00 | 51 | 1002.0 |
| 20260503071351 | 48 | 22 | 0.0 | 0.0 | 0.00 | 0.00 | 0.00 | 51 | 1002.0 |
| 20260503070834 | 48 | 17 | 0.0 | 1.0 | 0.00 | 0.00 | 0.00 | 52 | 1002.0 |
| 20260503070327 | 48 | 36 | 0.0 | 0.0 | 0.00 | 0.00 | 0.00 | 51 | 1002.1 |
| 20260503054837 | 50 | 36 | 0.0 | 0.0 | 0.00 | 0.00 | 0.00 | 47 | 1002.3 |
| 20260503054337 | 50 | 38 | 0.0 | 0.0 | 0.00 | 0.00 | 0.00 | 48 | 1002.3 |
| 20260503053841 | 50 | 38 | 0.0 | 0.0 | 0.00 | 0.00 | 0.00 | 48 | 1002.3 |
| 20260503051456 | 50 | 24 | 0.0 | 3.0 | 0.00 | 0.00 | 0.00 | 49 | 1002.4 |
| 20260503050945 | 50 | 30 | 0.0 | 5.0 | 0.00 | 0.00 | 0.00 | 46 | 1002.5 |
| 20260503050453 | 50 | 30 | 0.0 | 5.0 | 0.00 | 0.00 | 0.00 | 47 | 1002.5 |
| 20260503045938 | 50 | 27 | 0.0 | 5.0 | 0.00 | 0.00 | 0.00 | 46 | 1002.5 |
| 20260503045436 | 50 | 84 | 0.0 | 5.0 | 0.00 | 0.00 | 0.00 | 47 | 1002.6 |
| 20260503044312 | 50 | 34 | 0.0 | 0.0 | 0.00 | 0.00 | 0.00 | 49 | 1002.6 |
| 20260503043759 | 50 | 34 | 0.0 | 3.0 | 0.00 | 0.00 | 0.00 | 48 | 1002.6 |
| 20260503043257 | 50 | 32 | 0.0 | 0.0 | 0.00 | 0.00 | 0.00 | 49 | 1002.6 |
| 20260503042742 | 50 | 32 | 0.0 | 5.0 | 0.00 | 0.00 | 0.00 | 47 | 1002.7 |
| 20260503042228 | 50 | 17 | 0.0 | 2.0 | 0.00 | 0.00 | 0.00 | 48 | 1002.7 |
| 20260503041712 | 50 | 17 | 0.0 | 0.0 | 0.00 | 0.00 | 0.00 | 50 | 1002.7 |
| 20260503041212 | 50 | 17 | 0.0 | 0.0 | 0.00 | 0.00 | 0.00 | 50 | 1002.7 |
| 20260503040716 | 50 | 17 | 0.0 | 0.0 | 0.00 | 0.00 | 0.00 | 50 | 1002.7 |
| 20260503040206 | 50 | 17 | 0.0 | 0.0 | 0.00 | 0.00 | 0.00 | 48 | 1002.7 |
| 20260503035657 | 50 | 17 | 0.0 | 0.0 | 0.00 | 0.00 | 0.00 | 48 | 1002.6 |
| 20260503035156 | 50 | 17 | 0.0 | 0.0 | 0.00 | 0.00 | 0.00 | 49 | 1002.6 |
| 20260503034034 | 50 | 17 | 0.0 | 0.0 | 0.00 | 0.00 | 0.00 | 49 | 1002.6 |
| 20260503032850 | 50 | 17 | 0.0 | 0.0 | 0.00 | 0.00 | 0.00 | 49 | 1002.4 |
| 20260503032358 | 51 | 17 | 0.0 | 0.0 | 0.00 | 0.00 | 0.00 | 50 | 1002.5 |
| 20260503031851 | 51 | 17 | 0.0 | 0.0 | 0.00 | 0.00 | 0.00 | 49 | 1002.6 |
| 20260503031358 | 51 | 17 | 0.0 | 0.0 | 0.00 | 0.00 | 0.00 | 47 | 1002.6 |
| 20260503030237 | 52 | 17 | 0.0 | 0.0 | 0.00 | 0.00 | 0.00 | 49 | 1002.7 |
| 20260503025100 | 52 | 17 | 0.0 | 0.0 | 0.00 | 0.00 | 0.00 | 45 | 1002.6 |
| 20260503024604 | 52 | 17 | 0.0 | 0.0 | 0.00 | 0.00 | 0.00 | 46 | 1002.7 |
| 20260503024051 | 52 | 17 | 0.0 | 0.0 | 0.00 | 0.00 | 0.00 | 45 | 1002.7 |
| 20260503023542 | 53 | 17 | 0.0 | 0.0 | 0.00 | 0.00 | 0.00 | 44 | 1002.7 |
| 20260503023042 | 53 | 17 | 0.0 | 0.0 | 0.00 | 0.00 | 0.00 | 44 | 1002.7 |
| 20260503022549 | 53 | 17 | 0.0 | 0.0 | 0.00 | 0.00 | 0.00 | 45 | 1002.6 |
| 20260503022032 | 53 | 17 | 0.0 | 0.0 | 0.00 | 0.00 | 0.00 | 45 | 1002.6 |
| 20260503021538 | 53 | 17 | 0.0 | 3.0 | 0.00 | 0.00 | 0.00 | 46 | 1002.6 |
| 20260503015742 | 54 | 17 | 0.0 | 0.0 | 0.00 | 0.00 | 0.00 | 44 | 1002.8 |
| 20260503013945 | 54 | 17 | 0.0 | 0.0 | 0.00 | 0.00 | 0.00 | 43 | 1002.9 |
| 20260503013451 | 54 | 17 | 0.0 | 0.0 | 0.00 | 0.00 | 0.00 | 43 | 1002.8 |
| 20260503012950 | 54 | 17 | 0.0 | 0.0 | 0.00 | 0.00 | 0.00 | 42 | 1002.8 |
| 20260503011834 | 55 | 17 | 0.0 | 0.0 | 0.00 | 0.00 | 0.00 | 41 | 1002.8 |
| 20260503010043 | 55 | 17 | 0.0 | 0.0 | 0.00 | 0.00 | 0.00 | 43 | 1002.6 |
| 20260503005527 | 55 | 17 | 0.0 | 0.0 | 0.00 | 0.00 | 0.00 | 42 | 1002.4 |
| 20260503005019 | 55 | 17 | 0.0 | 0.0 | 0.00 | 0.00 | 0.00 | 42 | 1002.3 |
| 20260503004519 | 56 | 17 | 0.0 | 0.0 | 0.00 | 0.00 | 0.00 | 41 | 1002.1 |
| 20260503004010 | 56 | 17 | 0.0 | 0.0 | 0.00 | 0.00 | 0.00 | 41 | 1002.2 |
| 20260503003516 | 56 | 17 | 0.0 | 0.0 | 0.00 | 0.00 | 0.00 | 41 | 1002.1 |
| 20260503003014 | 56 | 17 | 0.0 | 0.0 | 0.00 | 0.00 | 0.00 | 40 | 1002.1 |
| 20260503001902 | 56 | 17 | 0.0 | 2.0 | 0.00 | 0.00 | 0.00 | 38 | 1002.0 |
| 20260503001358 | 57 | 17 | 0.0 | 0.0 | 0.00 | 0.00 | 0.00 | 40 | 1002.0 |